Location: Umburanas
(4.5000°S, 37.9667°W)
Time: 02:51:25
(UTC+00:00)

H-2A ROCKET BODY - Pass Details

Date: 19 November 2019
Orbit: 235 x 15443 km, 28.7° (Epoch: 08 December)

Event Time Altitude Azimuth Distance (km) Brightness Sun altitude
Rises 23:03:26 0° 247° (WSW) 5,849 7.5 -36.6°
Reaches altitude 10° 23:09:28 10° 255° (WSW) 3,153 5.8 -37.9°
Enters shadow 23:12:34 20° 269° (W) 1,730 4.3 -38.6°
